Wind_Speed
32 35 28 24 38 33 28 24 12 29 40 41 44 46 48 51 49 53 53 53 54 52 51 53 54 55 57 59 60 61 60 60 61 52 52 49 48 46 47 47 40 31 31
41 49 21 33 18 10 33 39 50 39 47 53 50 50 51 56 55 58 56 58 58 56 56 57 59 58 54 53 55 57 60 62 65 63 55 53 50 47 47 49 44 39 32
22 38 31 32 38 43 43 35 30 52 50 53 56 57 58 59 59 60 60 60 60 59 61 60 57 53 52 50 49 49 51 52 54 58 58 57 53 48 46 46 44 42 36
30 38 39 41 42 45 47 48 50 51 56 59 62 63 62 62 61 61 60 60 60 61 59 54 50 50 49 49 52 52 52 52 52 51 53 55 54 47 47 45 46 45 40
34 40 42 44 46 49 50 52 56 60 61 64 65 64 64 62 61 61 61 61 59 56 52 50 49 50 50 52 51 49 47 47 49 51 49 52 51 47 46 47 45 45 43
39 42 44 46 48 51 54 56 58 60 64 66 65 64 62 60 60 60 60 57 54 54 52 50 50 53 50 49 48 47 48 48 47 48 45 50 50 49 48 48 47 45 42
43 45 47 50 52 54 56 58 60 63 64 64 62 60 58 57 56 54 54 53 53 52 52 50 53 50 49 46 46 48 46 45 44 46 47 49 48 50 50 49 48 47 42
46 49 52 54 56 57 58 61 62 61 61 59 58 56 53 51 49 51 52 52 52 50 50 52 53 53 50 43 44 40 39 36 37 40 44 44 44 49 50 50 50 48 44
50 51 52 54 55 57 59 59 58 59 56 55 52 48 46 47 48 50 51 48 50 51 50 55 52 44 39 37 37 35 32 30 33 35 38 41 44 49 50 50 48 49 45
49 50 52 53 55 57 56 56 56 54 52 47 45 45 46 47 51 50 50 51 52 53 54 45 36 31 30 32 34 34 33 35 35 36 37 39 42 48 50 50 48 46 45
49 50 53 55 56 55 55 52 51 47 44 42 43 45 44 47 48 47 50 51 51 57 43 31 27 27 29 31 33 35 37 33 35 36 38 41 44 47 49 50 50 48 47
51 52 55 54 54 51 50 48 43 41 42 43 44 45 46 47 47 48 48 50 54 43 26 23 23 26 30 32 33 33 33 29 32 37 34 34 37 43 47 47 49 50 50
54 53 53 49 48 47 43 41 41 43 43 44 45 45 45 46 47 47 46 48 46 28 22 23 26 31 33 32 22 20 26 33 37 35 30 31 33 39 43 45 49 45 50
51 50 47 47 44 41 40 42 44 45 46 46 46 46 44 44 45 46 41 44 32 26 20 21 19 17 14 18 18 21 24 36 35 33 21 25 28 33 29 30 36 45 49
45 44 43 41 39 40 43 45 47 48 48 48 47 46 43 43 44 43 38 40 33 20 10 11 16 16 15 16 19 24 24 37 28 21 15 15 19 15 18 20 28 36 41
42 40 38 38 40 42 45 47 49 49 49 47 47 43 41 39 40 38 34 35 27 13 15 12 12 18 19 19 19 24 28 33 22 17 18 16 13 13 14 17 26 30 33
37 37 38 40 43 45 46 47 46 46 44 42 42 39 35 34 33 32 31 32 25 7 4 3 7 11 18 22 24 29 29 35 22 20 15 15 12 13 16 13 20 24 26
35 37 41 43 44 45 44 41 39 37 38 38 39 37 34 32 30 26 28 27 26 15 9 6 10 14 18 23 26 25 29 33 25 19 14 10 10 8 9 13 19 21 22
37 40 41 43 45 42 39 36 36 39 40 38 37 37 33 29 27 21 23 21 25 15 11 16 12 16 20 22 23 27 27 31 35 18 17 10 9 7 10 10 13 20 23
38 40 42 42 40 36 35 39 42 43 44 41 38 33 30 28 23 20 18 16 17 19 14 16 16 18 20 23 23 23 23 24 31 30 28 19 8 14 13 15 15 18 19
38 39 38 34 33 35 40 43 45 44 43 42 38 31 26 22 19 18 18 16 17 18 19 19 20 17 19 20 20 20 21 21 21 28 31 18 4 18 18 25 13 15 17
37 34 31 28 32 36 40 41 44 43 41 38 34 28 21 19 15 19 19 18 13 24 22 20 22 15 14 17 18 18 19 20 20 18 19 24 28 20 15 8 5 8 11
31 29 26 27 28 35 35 40 42 41 36 26 23 19 16 15 14 13 17 17 14 16 16 18 9 8 11 13 15 16 17 19 20 21 19 16 16 20 25 22 14 10 13
27 24 23 22 27 33 35 36 36 36 26 15 8 8 12 8 12 12 15 16 10 9 14 17 13 12 12 14 15 18 20 22 23 22 20 19 17 15 10 11 18 23 22
23 20 21 21 24 29 34 34 32 26 18 18 15 11 13 13 8 9 7 7 9 12 13 15 16 16 16 18 19 21 22 22 22 24 24 22 18 17 17 15 10 9 11
21 19 17 19 20 23 27 31 30 28 23 17 12 14 13 16 11 9 9 13 12 14 15 15 17 15 17 17 19 21 23 23 24 23 22 24 23 22 21 20 19 15 14
Wind_Direction
288 265 275 317 307 283 346 285 274 322 310 308 309 307 310 307 309 304 303 303 302 300 299 297 295 291 289 287 284 282 280 279 278 275 274 272 270 270 270 272 268 276 272
244 248 313 294 323 289 320 315 291 314 309 309 308 309 310 308 311 305 307 307 306 304 302 301 300 298 293 287 282 279 277 275 274 272 270 270 270 268 266 266 266 267 268
311 323 331 319 309 305 313 316 311 310 306 305 308 309 310 310 309 308 309 308 306 306 305 304 300 295 291 286 283 280 280 278 274 269 266 265 265 265 264 264 262 260 257
306 302 312 304 301 301 313 310 302 303 305 309 308 307 309 309 309 309 308 307 306 306 303 298 294 293 291 290 288 284 280 276 273 272 266 261 260 259 259 257 256 255 249
308 301 298 302 307 305 305 306 309 309 308 304 303 308 308 308 309 308 306 305 304 303 302 299 296 295 292 288 285 283 280 276 271 268 268 263 255 251 252 250 251 250 249
297 301 303 304 303 305 307 305 302 301 299 302 305 306 307 307 305 303 303 302 302 303 300 298 298 295 293 288 286 283 278 275 270 264 261 260 252 243 241 243 246 246 245
304 302 302 301 302 302 300 300 298 297 301 304 305 305 304 302 302 302 302 303 303 304 301 296 300 296 293 287 288 287 286 281 276 264 256 256 250 244 238 237 240 242 240
300 301 302 302 301 298 297 296 298 301 304 304 303 302 303 304 304 304 307 308 306 304 301 299 297 289 286 283 286 286 284 283 279 270 256 252 250 241 241 237 238 240 237
295 294 294 293 293 294 296 299 301 304 303 302 301 304 305 304 305 307 308 308 309 307 303 298 293 291 278 278 283 282 286 286 279 272 263 253 244 241 242 239 239 240 238
290 290 291 293 296 298 302 303 304 304 302 301 306 308 307 307 305 309 313 311 312 309 308 301 289 285 280 281 284 287 289 284 279 271 269 264 249 242 242 242 239 240 237
293 297 300 302 302 303 304 304 303 301 303 308 309 308 309 307 310 311 312 317 316 316 304 298 292 289 292 293 291 289 290 285 279 275 269 263 256 249 246 244 242 238 237
302 303 302 302 305 306 305 304 303 306 308 308 308 308 309 309 311 311 314 319 320 315 303 293 301 301 295 293 291 293 300 303 291 278 270 266 261 258 255 249 244 239 233
303 304 306 307 306 306 305 303 304 305 307 307 307 309 311 310 311 313 317 321 320 313 311 306 305 302 298 300 311 324 316 320 304 293 285 268 260 258 251 253 247 237 232
305 307 306 306 306 305 303 304 305 307 307 306 306 306 308 309 309 310 319 324 324 323 311 310 315 311 327 335 324 323 335 327 317 309 295 270 270 259 256 247 236 225 227
306 305 304 304 304 304 305 306 307 307 306 305 304 304 306 307 308 313 318 324 319 329 339 344 338 359 353 344 342 334 330 336 325 317 313 296 286 268 260 242 221 223 226
303 301 302 301 304 305 306 307 307 308 309 309 308 305 305 306 306 311 315 322 316 318 306 338 347 346 342 338 336 323 330 341 340 311 300 299 284 269 259 248 227 227 225
302 302 302 305 307 307 309 308 307 310 310 310 309 312 311 305 306 314 313 319 305 326 12 306 303 312 321 327 329 329 335 346 347 330 297 291 290 282 259 245 231 231 223
302 303 305 307 308 309 310 309 309 310 313 314 312 312 309 306 307 311 308 315 304 280 252 257 265 309 324 326 331 342 350 343 357 8 330 266 287 268 252 243 229 228 220
303 306 308 310 310 311 310 308 310 310 310 311 312 307 306 304 302 308 315 319 310 282 253 266 283 308 315 326 332 336 342 343 353 14 21 327 253 272 264 257 235 224 220
306 309 311 312 312 312 311 312 312 310 307 305 307 304 298 297 302 307 326 338 283 281 263 264 279 302 308 321 331 337 344 354 351 359 6 18 329 254 266 257 230 213 221
308 311 314 316 314 317 316 314 312 309 304 301 299 296 294 285 288 283 310 328 330 310 287 256 269 288 306 322 331 339 348 356 8 8 359 359 100 23 235 250 253 221 197
312 315 317 318 322 324 325 324 317 313 306 296 286 282 279 277 275 272 291 300 309 321 327 293 279 279 314 325 335 339 344 350 360 16 6 356 4 357 44 99 203 264 252
315 316 318 325 331 341 334 332 333 332 326 308 296 278 260 262 259 282 297 299 288 305 314 314 301 325 310 322 333 343 347 349 353 357 5 17 12 3 3 10 15 107 152
314 316 319 325 337 347 346 345 345 347 345 344 341 282 258 272 272 280 297 296 299 290 303 310 327 325 320 324 327 328 331 334 335 339 344 353 359 357 7 360 350 348 353
313 311 317 322 334 345 354 358 4 359 2 26 32 20 24 342 345 265 319 335 318 313 308 309 305 307 301 306 310 315 319 323 323 323 324 328 332 333 335 338 342 331 327
307 307 312 322 336 349 356 2 10 16 16 23 37 24 19 16 3 13 10 348 335 331 333 333 330 329 320 317 311 312 313 316 318 323 322 321 318 315 313 311 311 313 310
Height
5901 5892 5900 5900 5897 5885 5892 5890 5885 5888 5890 5885 5879 5875 5870 5868 5859 5856 5850 5845 5840 5836 5831 5827 5824 5821 5818 5814 5812 5810 5808 5807 5805 5815 5813 5816 5816 5817 5816 5818 5821 5825 5826
5863 5886 5892 5892 5895 5883 5889 5888 5878 5876 5876 5873 5869 5864 5858 5854 5845 5841 5834 5829 5824 5819 5814 5810 5806 5801 5799 5796 5793 5791 5789 5790 5787 5790 5799 5798 5800 5801 5803 5804 5809 5813 5815
5866 5881 5885 5886 5892 5889 5882 5874 5863 5866 5866 5862 5857 5851 5845 5839 5832 5827 5819 5813 5809 5803 5798 5793 5788 5783 5780 5778 5775 5774 5773 5772 5771 5770 5777 5780 5783 5786 5787 5790 5795 5799 5804
5881 5883 5879 5881 5881 5878 5866 5865 5866 5861 5855 5847 5842 5838 5831 5824 5819 5812 5804 5799 5794 5788 5783 5777 5773 5768 5764 5762 5759 5757 5755 5755 5754 5753 5755 5762 5764 5769 5771 5775 5778 5782 5789
5875 5879 5880 5872 5865 5862 5862 5858 5849 5844 5840 5838 5833 5824 5819 5812 5804 5796 5789 5783 5778 5773 5767 5761 5757 5753 5749 5745 5742 5741 5738 5737 5735 5736 5738 5741 5748 5751 5755 5758 5762 5766 5771
5881 5875 5870 5865 5861 5854 5848 5846 5842 5837 5832 5826 5820 5814 5806 5798 5790 5782 5775 5769 5763 5758 5752 5747 5742 5737 5733 5729 5726 5724 5721 5719 5718 5717 5719 5723 5730 5733 5737 5741 5746 5751 5759
5866 5861 5858 5856 5852 5847 5843 5837 5833 5829 5822 5815 5808 5800 5793 5784 5776 5768 5761 5756 5750 5745 5738 5733 5728 5722 5717 5713 5711 5709 5706 5702 5700 5701 5703 5706 5712 5717 5721 5725 5730 5736 5745
5858 5855 5850 5844 5840 5837 5834 5828 5822 5815 5808 5801 5793 5785 5777 5770 5762 5755 5749 5743 5737 5731 5724 5718 5713 5708 5703 5700 5697 5695 5692 5690 5686 5686 5688 5693 5697 5702 5706 5710 5715 5721 5731
5851 5847 5844 5840 5835 5829 5823 5815 5807 5801 5794 5786 5778 5772 5765 5758 5751 5745 5738 5731 5724 5717 5710 5702 5694 5691 5689 5688 5685 5684 5683 5681 5677 5675 5675 5678 5681 5685 5690 5695 5702 5705 5716
5845 5840 5835 5828 5822 5814 5807 5800 5793 5786 5780 5773 5767 5759 5752 5747 5739 5732 5725 5717 5710 5701 5693 5684 5680 5679 5678 5676 5675 5674 5673 5670 5668 5667 5666 5667 5668 5672 5677 5682 5687 5693 5700
5831 5825 5818 5811 5805 5799 5792 5786 5780 5773 5767 5761 5755 5748 5742 5735 5728 5721 5714 5705 5696 5688 5679 5676 5673 5671 5670 5669 5666 5665 5662 5661 5658 5655 5655 5655 5657 5659 5664 5668 5672 5680 5687
5816 5809 5804 5798 5791 5784 5778 5772 5766 5761 5756 5750 5745 5738 5731 5725 5718 5711 5703 5695 5685 5676 5670 5668 5667 5664 5662 5659 5657 5654 5652 5649 5644 5641 5641 5643 5643 5645 5646 5652 5657 5666 5674
5803 5797 5791 5784 5778 5772 5766 5761 5756 5750 5745 5739 5733 5729 5723 5716 5709 5702 5695 5687 5677 5668 5665 5662 5660 5656 5653 5650 5649 5647 5644 5639 5632 5629 5630 5630 5627 5628 5630 5634 5641 5650 5659
5790 5784 5778 5772 5766 5760 5755 5750 5744 5739 5733 5728 5723 5718 5712 5706 5700 5694 5688 5680 5671 5663 5659 5656 5653 5651 5649 5649 5646 5643 5638 5630 5622 5617 5615 5615 5615 5616 5618 5619 5623 5633 5643
5778 5773 5767 5762 5757 5752 5745 5738 5732 5727 5723 5717 5711 5706 5703 5697 5691 5685 5680 5673 5667 5662 5658 5655 5652 5649 5647 5646 5642 5638 5632 5625 5618 5612 5610 5609 5608 5609 5610 5612 5616 5624 5633
5768 5763 5758 5753 5748 5742 5735 5727 5719 5715 5710 5704 5698 5694 5690 5686 5681 5677 5672 5667 5663 5659 5657 5653 5650 5647 5645 5643 5639 5634 5628 5621 5614 5608 5606 5605 5604 5605 5606 5608 5613 5619 5626
5759 5754 5749 5744 5737 5731 5725 5719 5712 5702 5699 5694 5688 5684 5680 5677 5673 5670 5666 5662 5659 5658 5653 5650 5647 5646 5644 5641 5636 5632 5626 5618 5611 5606 5603 5602 5601 5601 5602 5605 5609 5614 5620
5749 5745 5739 5733 5727 5721 5715 5708 5703 5697 5691 5687 5680 5676 5672 5669 5666 5664 5660 5656 5653 5652 5651 5650 5647 5644 5642 5639 5634 5629 5623 5616 5611 5605 5600 5596 5597 5598 5600 5603 5606 5611 5617
5741 5736 5729 5723 5717 5711 5705 5699 5694 5689 5683 5678 5673 5668 5665 5662 5660 5659 5656 5651 5649 5646 5645 5645 5644 5642 5638 5636 5633 5628 5623 5615 5610 5605 5600 5596 5594 5595 5598 5600 5603 5607 5612
5732 5726 5721 5714 5707 5702 5696 5691 5685 5678 5672 5668 5664 5661 5657 5656 5654 5653 5650 5648 5646 5643 5640 5639 5639 5638 5636 5632 5630 5627 5623 5617 5611 5605 5601 5597 5595 5595 5596 5596 5600 5604 5608
5724 5719 5712 5707 5699 5694 5688 5681 5673 5666 5660 5655 5652 5651 5650 5649 5648 5648 5645 5644 5643 5641 5639 5635 5635 5634 5633 5630 5628 5625 5622 5618 5614 5608 5602 5598 5595 5594 5593 5595 5598 5601 5606
5715 5709 5705 5701 5696 5688 5679 5672 5662 5652 5645 5641 5638 5640 5641 5641 5641 5641 5641 5640 5639 5636 5634 5633 5631 5630 5629 5627 5625 5623 5621 5617 5613 5610 5607 5601 5598 5594 5594 5592 5593 5596 5596
5708 5703 5699 5695 5690 5684 5674 5663 5653 5642 5632 5627 5626 5629 5632 5634 5635 5636 5637 5635 5634 5634 5632 5630 5628 5627 5627 5625 5624 5621 5619 5617 5613 5609 5607 5606 5603 5600 5596 5594 5595 5595 5596
5702 5698 5695 5691 5686 5679 5671 5661 5648 5639 5630 5625 5624 5625 5628 5631 5632 5634 5632 5631 5630 5630 5630 5629 5627 5627 5625 5623 5622 5621 5618 5615 5612 5610 5607 5607 5604 5602 5601 5601 5598 5595 5596
5697 5694 5691 5688 5683 5677 5669 5660 5651 5643 5635 5630 5628 5629 5631 5630 5629 5629 5629 5629 5628 5628 5627 5625 5625 5624 5623 5622 5619 5617 5615 5613 5610 5607 5605 5603 5603 5601 5598 5597 5597 5597 5597
5692 5690 5688 5685 5681 5676 5670 5662 5655 5647 5641 5636 5634 5633 5632 5630 5630 5630 5629 5628 5627 5626 5624 5623 5621 5621 5619 5618 5616 5614 5612 5610 5606 5603 5602 5599 5598 5596 5596 5595 5593 5594 5593